THOR ABLESTAR DEB, 658

Orbit data source: Space-Track

THOR ABLESTAR DEB, 658 is space debris in LEO originally from a launch on Thu, 29 Jun 1961 UTC launched from the Air Force Eastern Test Range (AFETR). Debris objects in space refer to the collection of defunct objects orbiting the Earth. Examples of debris include non-operational satellites, rocket bodies, and fragments generated from explosions, collisions, or faulty payload assembly.

Loading next visibility...
Identifier
658, 1961-015HK
Orbit
LEO
Last TLE update
21 hours ago
Origin
Manufacturer
Unknown
Mission
Spacecraft
Bus & Motor
Unknown
Mass
Unknown
Launch date (UTC)
1961-06-29 (64 years ago)
Launch vehicle
Unknown
Launch site
Air Force Eastern Test Range (AFETR)
Object type
Payload
Rocket body
Debris
Shape & HBR
Unknown
Radar Cross Section
Small (<0.1 m²)

Expand to show TLE details & history

TLE from 21 hours ago
0 THOR ABLESTAR DEB
1 00658U 61015HK  25170.53959202  .00000844  00000-0  11543-2 0  9994
2 00658  65.8647 260.3289 0348211  22.8329 338.7781 13.41316840 10955
Epoch: 2025-06-19T12:57Z
TLE epoch observation values (Epoch: 2025-06-19T12:57:00.75Z)
Latitude
-0.00005°
Longitude
158.06993°
Altitude
864.678 km
Speed
7.539 km/s
True Right ascension
17h 21m 18s
True Declination
0° 00' 00"
Sunlit
Object was in full shadow at epoch
Visualization orbit readout
Latitude
-13.12858°
Longitude
-17.96795°
Altitude
1,366.692 km
Speed
7.051 km/s
Apparent Right ascension
06h 44m 26s
Apparent Declination
-26° 38' 00"
Sunlit
Object is in daylight
Visualization observer readout
Local Sidereal Time
20:30:16
Azimuth
66.925° ENE
Elevation
-64.347°
Doppler factor
1
Orbital elements
Apogee altitude
1,363.412 km
Perigee altitude
842.415 km
Semi-major axis
7,481.05 km
Eccentricity
0.03482
Inclination
65.8647°
RAAN
260.3289°
Arg. of periapsis
22.8329°
True anomaly
Unknown
Mean anomaly
338.7781°
Eccentric anomaly
Unknown
Mean motion
3.35428 °/min
Orbital period
107.33 mins
BSTAR
0.0011543
Loading maneuver chart data...
Loading SW <> Apogee altitude chart data...

THOR ABLESTAR DEB Visibility forecast

Observer location: undefined°, undefined°

Span
Click to sort rows by Start time (UTC) header in descending order
Start Az.
Max El. time (UTC)
Max El. Az.
Max El.
End time (UTC)
End Az.
8 mins2025-06-20 14:30:19.856Z3.632° NNE2025-06-20 14:34:19.856Z41.995° NE16.592°2025-06-20 14:38:19.856Z75.788° E
13 mins2025-06-20 16:20:19.856Z336.98° NNW2025-06-20 16:25:19.856Z39.518° NE42.91°2025-06-20 16:33:19.856Z140.881° SSE
10 mins2025-06-20 18:11:19.856Z296.809° NW2025-06-20 18:16:19.856Z247.1° WSW22.682°2025-06-20 18:21:19.856Z205.353° SW
7 mins2025-06-21 06:14:19.856Z144.843° SSE2025-06-21 06:17:19.856Z105.562° ESE20.175°2025-06-21 06:21:19.856Z59.84° ENE
9 mins2025-06-21 08:03:19.856Z235.659° WSW2025-06-21 08:07:19.856Z310.608° NW38.036°2025-06-21 08:12:19.856Z20.075° NNE
|